Location: McFarlands Corners
(41.4117°N, 81.3382°W)
Time: 19:08:39
(UTC+00:00)

Transit 4A - Pass Details

Date: 20 February 2026
Orbit: 864 x 977 km, 66.8° (Epoch: 10 March)

Event Time Altitude Azimuth Distance (km) Brightness Sun altitude
Rises 09:20:40 0° 231° (SW) 3,450 - -32.9°
Reaches altitude 10° 09:23:16 10° 238° (WSW) 2,526 - -32.4°
Maximum altitude 09:28:45 41° 308° (NW) 1,275 - -31.4°
Exits shadow 09:31:07 29° 355° (N) 1,598 9.1 -31.0°
Drops below altitude 10° 09:34:25 10° 18° (NNE) 2,605 10.6 -30.4°
Sets 09:37:08 0° 26° (NNE) 3,569 11.4 -29.9°
